H1 CPF 2 NER 2021 8 3 9 215 01 glonass135 H2 1600801 9135 41330 2021 8 3 0 0 0 2021 8 6 23 45 0 900 1 1 0 0 0 1 H9 10 0 59429 0.00000 0 -13749683.887 -5662585.356 20713695.181 10 0 59429 900.00000 0 -15074010.111 -7735219.833 19051757.979 10 0 59429 1800.00000 0 -16422792.479 -9514793.662 17019259.850 10 0 59429 2700.00000 0 -17735198.804 -10975020.925 14655612.643 10 0 59429 3600.00000 0 -18948338.434 -12102579.255 12006712.025 10 0 59429 4500.00000 0 -19999948.575 -12897417.267 9124047.916 10 0 59429 5400.00000 0 -20831076.560 -13372507.003 6063701.554 10 0 59429 6300.00000 0 -21388643.998 -13553051.916 2885248.738 10 0 59429 7200.00000 0 -21627783.245 -13475184.341 -349408.728 10 0 59429 8100.00000 0 -21513846.078 -13184208.451 -3577259.748 10 0 59429 9000.00000 0 -21023998.198 -12732464.206 -6735423.855 10 0 59429 9900.00000 0 -20148330.919 -12176904.191 -9762388.650 10 0 59429 10800.00000 0 -18890442.056 -11576487.584 -12599219.292 10 0 59429 11700.00000 0 -17267460.797 -10989503.209 -15190715.181 10 0 59429 12600.00000 0 -15309515.277 -10470936.469 -17486490.257 10 0 59429 13500.00000 0 -13058665.278 -10069992.707 -19441955.313 10 0 59429 14400.00000 0 -10567345.147 -9827882.478 -21019183.067 10 0 59429 15300.00000 0 -7896382.682 -9775962.548 -22187639.399 10 0 59429 16200.00000 0 -5112677.261 -9934310.962 -22924767.246 10 0 59429 17100.00000 0 -2286634.347 -10310795.702 -23216412.817 10 0 59429 18000.00000 0 510536.630 -10900675.386 -23057086.937 10 0 59429 18900.00000 0 3209548.950 -11686747.880 -22450057.718 10 0 59429 19800.00000 0 5745677.322 -12640039.679 -21407273.869 10 0 59429 20700.00000 0 8061200.056 -13721006.272 -19949121.129 10 0 59429 21600.00000 0 10107544.860 -14881192.510 -18104017.290 10 0 59429 22500.00000 0 11847050.910 -16065282.980 -15907854.170 10 0 59429 23400.00000 0 13254275.875 -17213456.216 -13403297.578 10 0 59429 24300.00000 0 14316795.609 -18263944.163 -10638958.885 10 0 59429 25200.00000 0 15035465.234 -19155689.825 -7668454.008 10 0 59429 26100.00000 0 15424132.523 -19830992.002 -4549367.803 10 0 59429 27000.00000 0 15508817.231 -20238026.600 -1342143.481 10 0 59429 27900.00000 0 15326392.025 -20333139.084 1891081.930 10 0 59429 28800.00000 0 14922821.235 -20082812.136 5087673.953 10 0 59429 29700.00000 0 14351031.920 -19465225.996 8185706.212 10 0 59429 30600.00000 0 13668506.926 -18471345.808 11125152.412 10 0 59429 31500.00000 0 12934701.044 -17105489.867 13849042.079 10 0 59429 32400.00000 0 12208388.688 -15385354.088 16304558.311 10 0 59429 33300.00000 0 11545054.279 -13341490.457 18444056.826 10 0 59429 34200.00000 0 10994434.747 -11016259.792 20225986.989 10 0 59429 35100.00000 0 10598317.254 -8462300.816 21615697.437 10 0 59429 36000.00000 0 10388684.724 -5740577.447 22586110.990 10 0 59429 36900.00000 0 10386287.396 -2918083.809 23118255.778 10 0 59429 37800.00000 0 10599701.030 -65300.618 23201642.141 10 0 59429 38700.00000 0 11024912.305 2746492.997 22834477.559 10 0 59429 39600.00000 0 11645450.028 5447941.703 22023714.666 10 0 59429 40500.00000 0 12433058.064 7974258.103 20784930.458 10 0 59429 41400.00000 0 13348883.158 10267679.457 19142037.837 10 0 59429 42300.00000 0 14345129.018 12279634.894 17126833.872 10 0 59429 43200.00000 0 15367108.152 13972532.787 14778392.315 10 0 59429 44100.00000 0 16355605.717 15321093.487 12142311.114 10 0 59429 45000.00000 0 17249455.908 16313171.303 9269828.840 10 0 59429 45900.00000 0 17988221.875 16950031.165 6216826.835 10 0 59429 46800.00000 0 18514865.175 17246068.362 3042736.559 10 0 59429 47700.00000 0 18778290.713 17227983.442 -190626.007 10 0 59429 48600.00000 0 18735658.115 16933447.788 -3420275.260 10 0 59429 49500.00000 0 18354360.171 16409317.232 -6583295.332 10 0 59429 50400.00000 0 17613583.186 15709470.532 -9618078.222 10 0 59429 51300.00000 0 16505381.962 14892365.672 -12465535.218 10 0 59429 52200.00000 0 15035222.989 14018418.942 -15070256.732 10 0 59429 53100.00000 0 13221972.305 13147319.121 -17381596.865 10 0 59429 54000.00000 0 11097328.231 12335391.555 -19354661.029 10 0 59429 54900.00000 0 8704722.758 11633124.328 -20951177.215 10 0 59429 55800.00000 0 6097737.954 11082961.330 -22140234.179 10 0 59429 56700.00000 0 3338103.886 10717455.194 -22898872.869 10 0 59429 57600.00000 0 493361.880 10557857.342 -23212520.569 10 0 59429 58500.00000 0 -2365709.331 10613203.574 -23075260.455 10 0 59429 59400.00000 0 -5167797.677 10879932.482 -22489932.550 10 0 59429 60300.00000 0 -7843780.237 11342051.463 -21468065.264 10 0 59429 61200.00000 0 -10329351.824 11971842.112 -20029639.862 10 0 59429 62100.00000 0 -12567451.840 12731074.325 -18202693.189 10 0 59429 63000.00000 0 -14510390.164 13572677.295 -16022766.863 10 0 59429 63900.00000 0 -16121585.406 14442796.705 -13532213.876 10 0 59429 64800.00000 0 -17376845.175 15283151.467 -10779376.072 10 0 59429 65700.00000 0 -18265136.913 16033591.055 -7817648.225 10 0 59429 66600.00000 0 -18788818.925 16634746.139 -4704446.593 10 0 59429 67500.00000 0 -18963323.560 17030661.493 -1500101.497 10 0 59429 68400.00000 0 -18816307.153 17171300.809 1733305.103 10 0 59429 69300.00000 0 -18386303.276 17014818.406 4933134.949 10 0 59429 70200.00000 0 -17720936.457 16529502.472 8037399.130 10 0 59429 71100.00000 0 -16874771.618 15695308.025 10985951.240 10 0 59429 72000.00000 0 -15906889.499 14504914.811 13721645.405 10 0 59429 72900.00000 0 -14878289.675 12964264.934 16191437.328 10 0 59429 73800.00000 0 -13849229.817 11092556.517 18347407.623 10 0 59429 74700.00000 0 -12876612.448 8921692.173 20147688.026 10 0 59429 75600.00000 0 -12011528.503 6495203.506 21557273.037 10 0 59429 76500.00000 0 -11297060.466 3866694.505 22548701.528 10 0 59429 77400.00000 0 -10766437.231 1097866.657 23102595.169 10 0 59429 78300.00000 0 -10441618.266 -1743794.093 23208043.096 10 0 59429 79200.00000 0 -10332367.003 -4587574.242 22862824.907 10 0 59429 80100.00000 0 -10435853.108 -7362228.723 22073466.923 10 0 59429 81000.00000 0 -10736801.308 -9998705.186 20855129.654 10 0 59429 81900.00000 0 -11208181.621 -12432784.143 19231327.470 10 0 59429 82800.00000 0 -11812413.052 -14607525.385 17233484.683 10 0 59429 83700.00000 0 -12503031.031 -16475418.831 14900335.462 10 0 59429 84600.00000 0 -13226748.941 -18000149.825 12277178.107 10 0 59429 85500.00000 0 -13925827.068 -19157904.583 9414997.528 10 0 59430 0.00000 0 -14540648.705 -19938160.818 6369472.619 10 0 59430 900.00000 0 -15012393.619 -20343929.873 3199887.467 10 0 59430 1800.00000 0 -15285695.423 -20391440.753 -32030.804 10 0 59430 2700.00000 0 -15311167.561 -20109278.639 -3263325.345 10 0 59430 3600.00000 0 -15047690.931 -19537016.170 -6431048.273 10 0 59430 4500.00000 0 -14464363.510 -18723395.430 -9473499.446 10 0 59430 5400.00000 0 -13542028.548 -17724139.231 -12331439.756 10 0 59430 6300.00000 0 -12274315.246 -16599485.519 -14949254.035 10 0 59430 7200.00000 0 -10668147.117 -15411550.583 -17276039.792 10 0 59430 8100.00000 0 -8743695.989 -14221633.706 -19266600.020 10 0 59430 9000.00000 0 -6533783.242 -13087577.938 -20882320.550 10 0 59430 9900.00000 0 -4082753.480 -12061298.817 -22091915.070 10 0 59430 10800.00000 0 -1444867.876 -11186585.109 -22872024.004 10 0 59430 11700.00000 0 1317715.523 -10497263.598 -23207656.578 10 0 59430 12600.00000 0 4137290.124 -10015804.153 -23092468.559 10 0 59430 13500.00000 0 6943180.098 -9752422.329 -22528871.554 10 0 59430 14400.00000 0 9664443.806 -9704715.671 -21527972.843 10 0 59430 15300.00000 0 12232589.557 -9857847.396 -20109347.939 10 0 59430 16200.00000 0 14584191.932 -10185268.203 -18300651.061 10 0 59430 17100.00000 0 16663301.279 -10649944.634 -16137071.577 10 0 59430 18000.00000 0 18423547.649 -11206041.334 -13660647.263 10 0 59430 18900.00000 0 19829853.355 -11800985.836 -10919447.705 10 0 59430 19800.00000 0 20859684.569 -12377828.725 -7966643.485 10 0 59430 20700.00000 0 21503791.351 -12877799.800 -4859478.958 10 0 59430 21600.00000 0 21766406.789 -13242952.827 -1658168.077 10 0 59430 22500.00000 0 21664898.212 -13418787.822 1575265.818 10 0 59430 23400.00000 0 21228886.017 -13356740.735 4778184.201 10 0 59430 24300.00000 0 20498867.745 -13016435.918 7888538.974 10 0 59430 25200.00000 0 19524405.386 -12367606.584 10846066.699 10 0 59430 26100.00000 0 18361951.940 -11391602.196 13593448.811 10 0 59430 27000.00000 0 17072408.144 -10082418.789 16077415.904 10 0 59430 27900.00000 0 15718511.378 -8447207.955 18249775.327 10 0 59430 28800.00000 0 14362165.638 -6506241.714 20068342.573 10 0 59430 29700.00000 0 13061823.931 -4292332.991 21497758.927 10 0 59430 30600.00000 0 11870032.198 -1849733.812 22510179.807 10 0 59430 31500.00000 0 10831237.331 767444.964 23085820.502 10 0 59430 32400.00000 0 9979950.908 3497228.776 23213348.633 10 0 59430 33300.00000 0 9339345.675 6272108.465 22890115.240 10 0 59430 34200.00000 0 8920343.949 9021608.240 22122219.331 10 0 59430 35100.00000 0 8721236.744 11674987.246 20924403.646 10 0 59430 36000.00000 0 8727850.310 14163963.419 19319782.492 10 0 59430 36900.00000 0 8914253.905 16425346.760 17339405.705 10 0 59430 37800.00000 0 9243979.711 18403472.472 15021665.967 10 0 59430 38700.00000 0 9671704.015 20052332.209 12411559.909 10 0 59430 39600.00000 0 10145318.979 21337313.787 9559816.628 10 0 59430 40500.00000 0 10608307.282 22236475.955 6521910.160 10 0 59430 41400.00000 0 11002318.617 22741304.195 3356975.126 10 0 59430 42300.00000 0 11269837.984 22856915.395 126647.252 10 0 59430 43200.00000 0 11356831.380 22601702.756 -3106147.810 10 0 59430 44100.00000 0 11215255.201 22006436.246 -6278432.556 10 0 59430 45000.00000 0 10805321.379 21112857.230 -9328416.994 10 0 59430 45900.00000 0 10097420.659 19971827.696 -12196713.768 10 0 59430 46800.00000 0 9073621.211 18641113.460 -14827504.083 10 0 59430 47700.00000 0 7728678.059 17182896.303 -17169630.616 10 0 59430 48600.00000 0 6070509.905 15661121.279 -19177595.511 10 0 59430 49500.00000 0 4120122.690 14138792.014 -20812443.828 10 0 59430 50400.00000 0 1910982.941 12675328.577 -22042515.416 10 0 59430 51300.00000 0 -512132.867 11324099.206 -22844051.246 10 0 59430 52200.00000 0 -3094764.762 10130229.212 -23201643.352 10 0 59430 53100.00000 0 -5774803.434 9128778.206 -23108520.740 10 0 59430 54000.00000 0 -8484847.387 8343360.743 -22566666.946 10 0 59430 54900.00000 0 -11154785.185 7785266.566 -21586768.114 10 0 59430 55800.00000 0 -13714495.799 7453115.493 -20187993.605 10 0 59430 56700.00000 0 -16096555.551 7333059.526 -18397614.211 10 0 59430 57600.00000 0 -18238840.213 7399521.961 -16250465.887 10 0 59430 58500.00000 0 -20086915.171 7616440.947 -13788269.700 10 0 59430 59400.00000 0 -21596115.687 7938964.109 -11058821.241 10 0 59430 60300.00000 0 -22733232.068 8315522.134 -8115064.979 10 0 59430 61200.00000 0 -23477730.914 8690193.671 -5014071.305 10 0 59430 62100.00000 0 -23822462.839 9005261.800 -1815935.631 10 0 59430 63000.00000 0 -23773828.281 9203854.474 1417379.604 10 0 59430 63900.00000 0 -23351395.340 9232557.883 4623237.997 10 0 59430 64800.00000 0 -22586986.325 9043892.816 7739534.762 10 0 59430 65700.00000 0 -21523271.512 8598549.787 10705892.043 10 0 59430 66600.00000 0 -20211929.072 7867288.690 13464821.262 10 0 59430 67500.00000 0 -18711447.945 6832422.638 15962830.614 10 0 59430 68400.00000 0 -17084665.161 5488822.747 18151456.825 10 0 59430 69300.00000 0 -15396140.070 3844400.548 19988201.644 10 0 59430 70200.00000 0 -13709474.619 1920046.108 21437355.402 10 0 59430 71100.00000 0 -12084691.035 -250977.494 22470692.009 10 0 59430 72000.00000 0 -10575775.954 -2624160.238 23068021.958 10 0 59430 72900.00000 0 -9228493.260 -5145347.104 23217592.515 10 0 59430 73800.00000 0 -8078556.759 -7752751.466 22916326.907 10 0 59430 74700.00000 0 -7150239.247 -10379298.068 22169897.129 10 0 59430 75600.00000 0 -6455476.322 -12955199.845 20992628.023 10 0 59430 76500.00000 0 -5993502.927 -15410662.647 19407233.293 10 0 59430 77400.00000 0 -5751038.355 -17678605.904 17444387.339 10 0 59430 78300.00000 0 -5703012.436 -19697286.167 15142140.027 10 0 59430 79200.00000 0 -5813802.662 -21412713.839 12545184.630 10 0 59430 80100.00000 0 -6038930.288 -22780761.486 9703992.440 10 0 59430 81000.00000 0 -6327143.553 -23768874.706 6673830.460 10 0 59430 81900.00000 0 -6622799.408 -24357313.025 3513681.261 10 0 59430 82800.00000 0 -6868441.971 -24539867.914 285086.589 10 0 59430 83700.00000 0 -7007467.183 -24324027.308 -2949061.881 10 0 59430 84600.00000 0 -6986759.131 -23730579.594 -6125759.952 10 0 59430 85500.00000 0 -6759184.625 -22792674.056 -9183130.822 10 0 59431 0.00000 0 -6285838.670 -21554378.146 -12061641.946 10 0 59431 900.00000 0 -5537943.670 -20068793.310 -14705274.145 10 0 59431 1800.00000 0 -4498322.159 -18395810.253 -17062618.286 10 0 59431 2700.00000 0 -3162377.456 -16599599.275 -19087878.544 10 0 59431 3600.00000 0 -1538542.621 -14745942.367 -20741761.810 10 0 59431 4500.00000 0 351823.123 -12899520.207 -21992236.306 10 0 59431 5400.00000 0 2475085.633 -11121268.213 -22815145.282 10 0 59431 6300.00000 0 4786507.651 -9465912.410 -23194664.804 10 0 59431 7200.00000 0 7231891.996 -7979787.695 -23123597.803 10 0 59431 8100.00000 0 9749627.526 -6699028.613 -22603499.929 10 0 59431 9000.00000 0 12273052.711 -5648206.704 -21644635.896 10 0 59431 9900.00000 0 14733038.580 -4839469.531 -20265768.178 10 0 59431 10800.00000 0 17060684.105 -4272215.321 -18493782.993 10 0 59431 11700.00000 0 19190012.644 -3933314.737 -16363161.314 10 0 59431 12600.00000 0 21060558.094 -3797868.603 -13915305.528 10 0 59431 13500.00000 0 22619734.272 -3830468.125 -11197734.827 10 0 59431 14400.00000 0 23824890.008 -3986903.363 -8263164.774 10 0 59431 15300.00000 0 24644965.444 -4216247.270 -5168488.639 10 0 59431 16200.00000 0 25061681.611 -4463227.032 -1973679.866 10 0 59431 17100.00000 0 25070214.586 -4670782.624 1259363.597 10 0 59431 18000.00000 0 24679326.841 -4782704.828 4468011.102 10 0 59431 18900.00000 0 23910950.850 -4746241.624 7590104.715 10 0 59431 19800.00000 0 22799242.579 -4514563.256 10565155.483 10 0 59431 20700.00000 0 21389144.443 -4048982.122 13335507.832 10 0 59431 21600.00000 0 19734517.499 -3320833.788 15847450.191 10 0 59431 22500.00000 0 17895920.411 -2312939.415 18052250.879 10 0 59431 23400.00000 0 15938127.286 -1020587.223 19907099.679 10 0 59431 24300.00000 0 13927487.239 548009.579 21375937.316 10 0 59431 25200.00000 0 11929235.009 2371799.354 22430157.107 10 0 59431 26100.00000 0 10004864.143 4417521.525 23049165.220 10 0 59431 27000.00000 0 8209671.619 6640854.940 23220788.617 10 0 59431 27900.00000 0 6590575.878 8988039.576 22941522.326 10 0 59431 28800.00000 0 5184299.116 11397906.077 22216610.534 10 0 59431 29700.00000 0 4015989.684 13804230.523 21059958.985 10 0 59431 30600.00000 0 3098342.319 16138317.830 19493879.212 10 0 59431 31500.00000 0 2431253.339 18331707.041 17548668.315 10 0 59431 32400.00000 0 2002025.512 20318886.144 15262031.220 10 0 59431 33300.00000 0 1786114.206 22039903.005 12678355.514 10 0 59431 34200.00000 0 1748383.479 23442762.623 9847852.206 10 0 59431 35100.00000 0 1844818.875 24485509.506 6825578.665 10 0 59431 36000.00000 0 2024624.040 25137906.800 3670362.729 10 0 59431 36900.00000 0 2232611.535 25382640.583 443649.450 10 0 59431 37800.00000 0 2411785.351 25215997.852 -2791706.187 10 0 59431 38700.00000 0 2506004.126 24647989.125 -5972675.913 10 0 59431 39600.00000 0 2462610.507 23701910.345 -9037298.610 10 0 59431 40500.00000 0 2234913.421 22413362.835 -11925898.949 10 0 59431 41400.00000 0 1784416.469 20828773.270 -14582259.222 10 0 59431 42300.00000 0 1082696.681 19003476.939 -16954720.389 10 0 59431 43200.00000 0 112853.077 16999446.083 -18997190.245 10 0 59431 44100.00000 0 -1129536.940 14882759.798 -20670038.859 10 0 59431 45000.00000 0 -2635994.086 12720922.703 -21940863.946 10 0 59431 45900.00000 0 -4385264.618 10580145.244 -22785111.954 10 0 59431 46800.00000 0 -6343993.323 8522699.620 -23186543.658 10 0 59431 47700.00000 0 -8467913.714 6604461.471 -23137536.323 10 0 59431 48600.00000 0 -10703505.539 4872739.073 -22639217.801 10 0 59431 49500.00000 0 -12990050.371 3364479.162 -21701431.100 10 0 59431 50400.00000 0 -15261999.547 2104922.513 -20342531.147 10 0 59431 51300.00000 0 -17451556.109 1106763.237 -18589018.518 10 0 59431 52200.00000 0 -19491363.672 369844.664 -16475017.787 10 0 59431 53100.00000 0 -21317190.837 -118597.619 -14041610.929 10 0 59431 54000.00000 0 -22870500.188 -383157.799 -11336038.784 10 0 59431 54900.00000 0 -24100795.698 -458981.273 -8410785.875 10 0 59431 55800.00000 0 -24967651.579 -390040.468 -5322566.120 10 0 59431 56700.00000 0 -25442338.823 -227038.500 -2131228.659 10 0 59431 57600.00000 0 -25508982.319 -25029.415 1101395.452 10 0 59431 58500.00000 0 -25165200.783 159144.531 4312683.806 10 0 59431 59400.00000 0 -24422203.196 269490.543 7440427.874 10 0 59431 60300.00000 0 -23304337.798 253466.875 10424030.226 10 0 59431 61200.00000 0 -21848112.386 64438.777 13205670.937 10 0 59431 62100.00000 0 -20100726.423 -336114.667 15731421.269 10 0 59431 63000.00000 0 -18118175.602 -976736.024 17952283.628 10 0 59431 63900.00000 0 -15963007.157 -1874546.331 19825138.107 10 0 59431 64800.00000 0 -13701818.558 -3034284.892 21313577.810 10 0 59431 65700.00000 0 -11402602.818 -4447873.814 22388617.073 10 0 59431 66600.00000 0 -9132050.061 -6094527.260 23029258.943 10 0 59431 67500.00000 0 -6952916.833 -7941402.998 23222910.852 10 0 59431 68400.00000 0 -4921571.979 -9944771.211 22965639.964 10 0 59431 69300.00000 0 -3085820.893 -12051653.997 22262262.579 10 0 59431 70200.00000 0 -1483098.534 -14201869.137 21126264.890 10 0 59431 71100.00000 0 -139106.519 -16330394.621 19579555.446 10 0 59431 72000.00000 0 933048.594 -18369956.335 17652052.895 10 0 59431 72900.00000 0 1733179.648 -20253731.604 15381115.759 10 0 59431 73800.00000 0 2273792.142 -21918055.648 12810824.188 10 0 59431 74700.00000 0 2579315.872 -23305017.203 9991126.896 10 0 59431 75600.00000 0 2684827.584 -24364833.712 6976869.393 10 0 59431 76500.00000 0 2634319.039 -25057905.272 3826722.375 10 0 59431 77400.00000 0 2478584.541 -25356459.731 602031.671 10 0 59431 78300.00000 0 2272818.512 -25245718.588 -2634387.056 10 0 59431 79200.00000 0 2074026.383 -24724533.634 -5819484.178 10 0 59431 80100.00000 0 1938360.168 -23805466.921 -8891217.019 10 0 59431 81000.00000 0 1918493.450 -22514310.517 -11789770.202 10 0 59431 81900.00000 0 2061148.670 -20889066.483 -14458730.373 10 0 59431 82800.00000 0 2404882.951 -18978430.668 -16846191.246 10 0 59431 83700.00000 0 2978227.321 -16839844.888 -18905766.781 10 0 59431 84600.00000 0 3798258.828 -14537200.230 -20597492.522 10 0 59431 85500.00000 0 4869666.260 -12138288.731 -21888597.652 10 0 59432 0.00000 0 6184348.953 -9712110.726 -22754133.364 10 0 59432 900.00000 0 7721565.890 -7326150.725 -23177446.268 10 0 59432 1800.00000 0 9448627.482 -5043735.220 -23150488.614 10 0 59432 2700.00000 0 11322102.494 -2921582.535 -22673960.646 10 0 59432 3600.00000 0 13289487.778 -1007644.554 -21757283.444 10 0 59432 4500.00000 0 15291271.851 660670.397 -20418403.761 10 0 59432 5400.00000 0 17263305.857 2057822.019 -18683435.545 10 0 59432 6300.00000 0 19139383.316 3170956.735 -16586145.595 10 0 59432 7200.00000 0 20853921.394 4000188.694 -14167293.729 10 0 59432 8100.00000 0 22344632.436 4558333.629 -11473840.302 10 0 59432 9000.00000 0 23555074.965 4870108.702 -8558036.295 10 0 59432 9900.00000 0 24436978.363 4970833.530 -5476413.424 10 0 59432 10800.00000 0 24952244.861 4904688.253 -2288693.417 10 0 59432 11700.00000 0 25074545.822 4722602.732 943362.869 10 0 59432 12600.00000 0 24790446.037 4479866.216 4157144.626 10 0 59432 13500.00000 0 24100009.316 4233558.308 7290396.066 10 0 59432 14400.00000 0 23016860.028 4039909.443 10282414.460 10 0 59432 15300.00000 0 21567697.780 3951701.946 13075218.483 10 0 59432 16200.00000 0 19791284.930 4015821.039 15614664.897 10 0 59432 17100.00000 0 17736948.397 4271058.953 17851492.522 10 0 59432 18000.00000 0 15462657.287 4746264.826 19742273.750 10 0 59432 18900.00000 0 13032755.267 5458918.769 21250255.680 10 0 59432 19800.00000 0 10515440.876 6414191.059 22346074.907 10 0 59432 20700.00000 0 7980099.476 7604527.282 23008332.198 10 0 59432 21600.00000 0 5494596.679 9009778.587 23224015.857 10 0 59432 22500.00000 0 3122644.844 10597873.633 22988765.141 10 0 59432 23400.00000 0 921351.515 12326006.170 22306967.946 10 0 59432 24300.00000 0 -1060948.651 14142290.660 21191689.910 10 0 59432 25200.00000 0 -2786488.439 15987818.548 19664435.148 10 0 59432 26100.00000 0 -4229414.199 17799030.576 17754741.994 10 0 59432 27000.00000 0 -5376627.278 19510306.810 15499620.364 10 0 59432 27900.00000 0 -6228085.408 21056666.299 12942840.513 10 0 59432 28800.00000 0 -6796551.369 22376462.925 10134086.216 10 0 59432 29700.00000 0 -7106799.644 23413963.590 7127988.368 10 0 59432 30600.00000 0 -7194314.965 24121699.311 3983057.707 10 0 59432 31500.00000 0 -7103538.376 24462488.895 760538.009 10 0 59432 32400.00000 0 -6885736.097 24411048.656 -2476797.179 10 0 59432 33300.00000 0 -6596582.772 23955118.996 -5665879.589 10 0 59432 34200.00000 0 -6293563.084 23096059.410 -8744587.566 10 0 59432 35100.00000 0 -6033303.582 21848886.189 -11652968.090 10 0 59432 36000.00000 0 -5868949.478 20241751.015 -14334414.333 10 0 59432 36900.00000 0 -5847699.031 18314882.605 -16736774.678 10 0 59432 37800.00000 0 -6008601.149 16119036.419 -18813370.898 10 0 59432 38700.00000 0 -6380710.186 13713518.171 -20523905.400 10 0 59432 39600.00000 0 -6981676.364 11163864.817 -21835239.964 10 0 59432 40500.00000 0 -7816831.370 8539280.660 -22722031.425 10 0 59432 41400.00000 0 -8878807.485 5909936.022 -23167212.818 10 0 59432 42300.00000 0 -10147705.823 3344241.253 -23162311.710 10 0 59432 43200.00000 0 -11591806.185 906209.101 -22707600.763 10 0 59432 44100.00000 0 -13168788.277 -1346985.687 -21812078.773 10 0 59432 45000.00000 0 -14827412.768 -3367149.368 -20493283.591 10 0 59432 45900.00000 0 -16509591.636 -5116827.492 -18776941.409 10 0 59432 46800.00000 0 -18152761.235 -6570607.395 -16696459.781 10 0 59432 47700.00000 0 -19692459.030 -7715912.843 -14292274.585 10 0 59432 48600.00000 0 -21064996.656 -8553259.969 -11611063.663 10 0 59432 49500.00000 0 -22210118.086 -9095966.010 -8704842.251 10 0 59432 50400.00000 0 -23073532.258 -9369324.873 -5629957.533 10 0 59432 51300.00000 0 -23609214.854 -9409285.678 -2446001.398 10 0 59432 52200.00000 0 -23781383.386 -9260690.957 785338.000 10 0 59432 53100.00000 0 -23566063.332 -8975149.259 4001464.027 10 0 59432 54000.00000 0 -22952179.918 -8608632.098 7140076.279 10 0 59432 54900.00000 0 -21942129.796 -8218896.507 10140369.410 10 0 59432 55800.00000 0 -20551808.335 -7862841.574 12944203.385 10 0 59432 56700.00000 0 -18810090.716 -7593910.117 15497223.089 10 0 59432 57600.00000 0 -16757787.547 -7459644.690 17749906.240 10 0 59432 58500.00000 0 -14446117.400 -7499500.734 19658519.777 10 0 59432 59400.00000 0 -11934758.573 -7743009.070 21185966.723 10 0 59432 60300.00000 0 -9289559.648 -8208365.518 22302507.475 10 0 59432 61200.00000 0 -6580002.696 -8901507.800 22986341.633 10 0 59432 62100.00000 0 -3876523.165 -9815719.756 23224039.036 10 0 59432 63000.00000 0 -1247796.531 -10931781.131 23010811.262 10 0 59432 63900.00000 0 1241896.396 -12218658.451 22350617.610 10 0 59432 64800.00000 0 3535116.738 -13634709.965 21256102.596 10 0 59432 65700.00000 0 5583426.003 -15129355.994 19748364.977 10 0 59432 66600.00000 0 7349165.867 -16645146.163 17856561.524 10 0 59432 67500.00000 0 8806785.048 -18120137.999 15617351.989 10 0 59432 68400.00000 0 9943657.666 -19490487.672 13074194.863 10 0 59432 69300.00000 0 10760358.656 -20693144.059 10276506.828 10 0 59432 70200.00000 0 11270384.729 -21668532.380 7278701.743 10 0 59432 71100.00000 0 11499332.915 -22363113.431 4139127.769 10 0 59432 72000.00000 0 11483571.828 -22731709.267 918923.833 10 0 59432 72900.00000 0 11268462.747 -22739495.778 -2319181.503 10 0 59432 73800.00000 0 10906206.967 -22363576.600 -5512104.228 10 0 59432 74700.00000 0 10453412.035 -21594070.624 -8597646.583 10 0 59432 75600.00000 0 9968481.611 -20434666.204 -11515720.692 10 0 59432 76500.00000 0 9508941.208 -18902618.042 -14209528.931 10 0 59432 77400.00000 0 9128814.604 -17028186.671 -16626676.867 10 0 59432 78300.00000 0 8876163.237 -14853544.222 -18720196.384 10 0 59432 79200.00000 0 8790893.610 -12431192.814 -20449458.773 10 0 59432 80100.00000 0 8902925.771 -9821962.445 -21780960.087 10 0 59432 81000.00000 0 9230800.278 -7092672.711 -22688964.066 10 0 59432 81900.00000 0 9780782.032 -4313556.312 -23155991.023 10 0 59432 82800.00000 0 10546498.141 -1555552.015 -23173144.228 10 0 59432 83700.00000 0 11509124.292 1112420.560 -22740268.713 10 0 59432 84600.00000 0 12638111.054 3626091.678 -21865940.542 10 0 59432 85500.00000 0 13892418.919 5928269.462 -20567287.838 99